This demonstration page uses our WeatherBlox Daily Observations layout. Learn more.

Left ArrowRight Arrow

Hourly Observations for August 3, 2015

Temp ( °F °C ) Dew Point ( °F °C ) Humidity (%) Winds ( mph kmh ) Pressure ( in mb ) Visibility ( mi km ) Precip ( " mm )
12:53 am 00:53 Clear 80 26.7 65 18.3 60 60 E 7 11 29.78 1009 10 16 0.00 0.00
1:53 am 01:53 Clear 80 26.7 64 17.8 58 58 SE 8 13 29.77 1008 10 16 0.00 0.00
2:53 am 02:53 Clear 78 25.6 65 18.3 64 64 SE 8 13 29.76 1008 10 16 0.00 0.00
3:53 am 03:53 Clear 77 25 64 17.8 64 64 SE 6 9 29.76 1008 10 16 0.00 0.00
4:53 am 04:53 Clear 76 24.4 63 17.2 64 64 SE 7 11 29.76 1008 10 16 0.00 0.00
5:53 am 05:53 Clear 75 23.9 62 16.7 64 64 SE 7 11 29.77 1008 10 16 0.00 0.00
6:53 am 06:53 Clear 75 23.9 62 16.7 64 64 ESE 8 13 29.78 1008 10 16 0.00 0.00
7:53 am 07:53 Sunny 76 24.4 61 16.1 60 60 SE 8 13 29.78 1009 10 16 0.00 0.00
8:53 am 08:53 Sunny 78 25.6 60 15.6 54 54 SE 10 17 29.83 1010 10 16 0.00 0.00
9:53 am 09:53 Sunny 81 27.2 59 15 47 47 SE 13 20 29.84 1011 10 16 0.00 0.00
10:53 am 10:53 Sunny 85 29.4 60 15.6 43 43 SE 12 19 29.83 1010 10 16 0.00 0.00
11:53 am 11:53 Sunny 88 31.1 60 15.6 39 39 SSE 10 17 29.83 1010 10 16 0.00 0.00
12:53 pm 12:53 Sunny 93 33.9 59 15 32 32 S 10 17 29.80 1009 10 16 0.00 0.00
1:53 pm 13:53 Sunny 96 35.6 58 14.4 28 28 SSE 12 19 29.78 1008 10 16 0.00 0.00
2:53 pm 14:53 Sunny 98 36.7 58 14.4 26 26 SSE 10 17 29.76 1008 10 16 0.00 0.00
3:53 pm 15:53 Mostly Sunny 99 37.2 58 14.4 26 26 undefined N/A 29.74 1007 10 16 0.00 0.00
4:53 pm 16:53 Mostly Sunny 98 36.7 57 13.9 25 25 SE 12 19 29.70 1006 10 16 0.00 0.00
5:53 pm 17:53 Mostly Sunny 100 37.8 57 13.9 24 24 undefined N/A 29.68 1005 10 16 0.00 0.00
6:24 pm 18:24 Sunny 95 35 57 14 28 28 SSW 22 35 29.62 1003 10 16 0.00 0.00
6:32 pm 18:32 Sunny with Nearby Thunderstorms 97 36 57 14 27 27 S 22 35 29.62 1003 10 16 0.00 0.00
6:53 pm 18:53 Partly Cloudy with Nearby Thunderstorms 94 34.4 58 14.4 30 30 SSW 20 31 29.71 1006 10 16 0.00 0.00
7:03 pm 19:03 Mostly Cloudy with Thunderstorms 81 27 64 18 58 58 W 30 48 29.68 1005 10 16 0.00 0.00
7:12 pm 19:12 Windy with Storms Likely 81 27 64 18 58 58 W 25 41 29.74 1007 8 13 0.00 0.00
7:53 pm 19:53 Cloudy with Nearby Thunderstorms 78 25.6 64 17.8 62 62 W 21 33 29.80 1009 10 16 0.00 0.03
8:29 pm 20:29 Windy with Storms Likely 76 24.4 65 18.3 69 69 NW 20 31 29.80 1009 10 16 0.00 0.03
8:44 pm 20:44 Mostly Cloudy with Nearby Thunderstorms 75 24 66 19 74 74 N 16 26 29.83 1010 10 16 0.00 0.00
8:53 pm 20:53 Cloudy with Nearby Thunderstorms 76 24.4 66 18.9 72 72 N 17 28 29.83 1010 10 16 0.00 0.03
9:01 pm 21:01 Cloudy with Thunderstorms 75 23.9 66 18.9 74 74 N 18 30 29.83 1010 10 16 0.01 0.25
9:16 pm 21:16 Cloudy with Nearby Thunderstorms 73 23 70 21 89 89 NE 21 33 29.83 1010 10 16 0.00 0.00
9:53 pm 21:53 Cloudy with Nearby Thunderstorms 74 23.3 69 20.6 85 85 NE 17 28 29.84 1011 10 16 0.02 0.51
10:53 pm 22:53 Mostly Cloudy with Nearby Thunderstorms 73 22.8 68 20 84 84 E 12 19 29.85 1011 10 16 0.00 0.03
11:00 pm 23:00 Mostly Cloudy 73 23 66 19 78 78 E 12 19 29.83 1010 10 16 0.00 0.00
11:53 pm 23:53 Mostly Cloudy 75 23.9 64 17.8 69 69 E 12 19 29.83 1010 10 16 0.00 0.00

Powered by AerisWeather